Regional Weather Roundup
Issued by NWS

Home | Current Version | Previous Version | Text Only | Print | Product List | Glossary Off
Versions: 1 2 3 4 5 6 7 8 9 10 11 12 13 14 15 16 17 18 19 20 21 22 23 24 25 26 27 28 29 30 31 32 33 34 35 36 37 38 39 40 41 42 43 44 45 46 47 48 49 50

000
ASUS45 KSLC 300010
RWRUT

UTAH REGIONAL WEATHER ROUNDUP
NATIONAL WEATHER SERVICE SALT LAKE CITY UT
600 PM MDT WED JUL 29 2015

UTZ001>011-023>025-300100-

NORTHERN UTAH

CITY           SKY/WX    TMP DP  RH WIND       PRES   REMARKS
BRIGHAM CITY   SUNNY     83  13   7 SW5       30.23F
HILL AFB       SUNNY     83  28  13 N6        30.26F
LOGAN          SUNNY     82  10   6 CALM      30.24F
OGDEN          SUNNY     83  26  12 VRB5      30.23F
PROVO AIRPORT  NOT AVBL
SALT LAKE CITY SUNNY     86  21   9 N12       30.21F
VERNAL         SUNNY     86   7   5 NE7       30.22F
WENDOVER       SUNNY     84  28  13 CALM      30.22F
HEBER CITY     SUNNY     84  30  14 SW9G17    30.27F
WEST JORDAN    SUNNY     82  34  17 NW9       30.24F

$$

UTZ012>022-026-027-300100-

SOUTHERN/CENTRAL UTAH

CITY           SKY/WX    TMP DP  RH WIND       PRES   REMARKS
BLANDING       MOSUNNY   87  31  13 N6        30.28S
BRYCE CANYON   MOSUNNY   82  32  16 SW9       30.36F
CEDAR CITY     SUNNY     91  20   7 NW12G21   30.21F
DELTA          SUNNY     89  21   8 NW6       30.20F
HANKSVILLE     SUNNY     95  28   9 CALM      30.12F
MILFORD        SUNNY     91  29  11 N14       30.18F
MOAB/CYNLANDS  SUNNY     93  21   7 N7        30.11F
PRICE          SUNNY     88  20   8 VRB5      30.24F
ST GEORGE      CLEAR    100  36  10 S3        29.99F HX  95

$$

REGIONAL REPORTS     COLORADO/ARIZONA

CITY           SKY/WX    TMP DP  RH WIND       PRES   REMARKS
CRAIG, CO      SUNNY     86  20   9 NW8G20    30.29F
GRAND JUNCTION MOSUNNY   90  24   9 W6        30.14F
RIFLE          PTSUNNY   91  27  10 N5        30.19F
MONTROSE       MOSUNNY   87  31  13 NW14      30.23F
CORTEZ         SUNNY     82  42  24 SE9       30.24F
PAGE, AZ       SUNNY     96  22   7 NW3       30.08F HX  90
GRAND CANYON   MOSUNNY   84  27  12 SE5       30.28S
KINGMAN        PTSUNNY   94  53  25 SW21      30.05F HX  91
FLAGSTAFF      PTSUNNY   71  49  45 SW8       30.33F

$$

REGIONAL REPORTS    NEVADA/IDAHO/WYOMING

CITY           SKY/WX    TMP DP  RH WIND       PRES   REMARKS
LAS VEGAS, NV  CLOUDY    95  50  21 S13G18    29.92S HX  92
ELY            SUNNY     88  23   9 NE12      30.26F
ELKO           SUNNY     88  20   8 S6        30.21F
POCATELLO, ID  SUNNY     81  35  19 NW9       30.26F
BURLEY         SUNNY     83  34  17 VRB3      30.21F
EVANSTON, WY   MOSUNNY   78  11   8 W15G24    30.39F
ROCK SPRINGS   SUNNY     77  10   7 W14       30.35F
KEMMERER       SUNNY     77  16  10 W3G20     30.40F

$$


USA.gov is the U.S. government's official web portal to all federal, state and local government web resources and services.